Location: Mercogliano
(40.9167°N, 14.7333°E)
Time: 07:50:44
(UTC+00:00)

Cosmos 2150 Rocket - Pass Details

Date: 23 January 2021
Orbit: 748 x 808 km, 74.0° (Epoch: 04 March)

Event Time Altitude Azimuth Distance (km) Brightness Sun altitude
Exits shadow 05:04:47 - 342° (NNW) 3,297 7.0 -14.0°
Rises 05:04:51 0° 342° (NNW) 3,271 7.0 -14.0°
Reaches altitude 10° 05:07:14 10° 344° (NNW) 2,348 6.2 -13.6°
Maximum altitude 05:12:35 76° 70° (ENE) 821 4.3 -12.6°
Drops below altitude 10° 05:17:59 10° 156° (SSE) 2,368 7.1 -11.6°
Sets 05:20:24 0° 158° (SSE) 3,300 7.9 -11.2°
